NUSTAR

Last updated on Mon Sep 21 2026 00:03:33 GMT+0000 (Coordinated Universal Time)

1 38358U 12031A 26263.66668981 .00006846 00000+0 36120-3 0 9991 2 38358 6.0271 37.4802 0006945 92.3806 327.6758 15.09574063 1303
UTC large
Height (km)
Speed (km/s)
/
Latitude / Longitude
Inclination (degrees)
Orbital Period (minutes)
Azimuth
Elevation
Range (km)
Doppler Factor

Next 0 passes for location: London (51.5072 / 0.1276)

No passes found over London.
NUSTAR